Tracking 18852 objects as of 24-Nov-2017
HD Live streaming from Space Station
objects crossing your sky now

COSMOS 2092

Track COSMOS 2092 now!
10-day predictions
COSMOS 2092 is classified as:


NORAD ID: 20737
Int'l Code: 1990-070C
Perigee: 1,413.0 km
Apogee: 1,420.2 km
Inclination: 82.6 °
Period: 114.0 minutes
Semi major axis: 7787 km
RCS: 1.1992 m2 (large)
Launch date: August 8, 1990
Source: Commonwealth of Independent States (former USSR) (CIS)
Launch site: PLESETSK MISSILE AND SPACE COMPLEX (PKMTR)
aabbcc
Your satellite tracking list
Your tracking list is empty




NASA's NSSDC Master Catalog

Two Line Element Set (TLE):
1 20737U 90070C   17327.58633449 +.00000010 +00000-0 -14701-5 0  9997
2 20737 082.5656 147.7175 0004619 044.3301 016.5490 12.63270633258441
Source of the keplerian elements: AFSPC